STARLINK-1913 (47179 NORAD) Tracking and Keplerian Element Data
This shows tracking and keplerian element data for the satellite.
Feedback or suggestion? Click here.
Element | Value |
Catalog | 47179 |
Name | STARLINK-1913 |
Epoch Orbit | 180 |
Epoch Day | 20.91667824 |
Epoch Year | 2021 |
RAAN | 83.3109 |
Inclination | 53.0573 |
Eccentricity | 0.0001567 |
Argument of Perigee | 58.3773 |
Mean Anonmoly | 11.625 |
Mean Motion | 15.06402681 |
Decay Rate | -0.00038735 |
L1 | 1 47179U 20088BK 21020.91667824 -.00038735 00000-0 -25955-2 0 9990 |
L2 | 2 47179 53.0573 83.3109 0001567 58.3773 11.6250 15.06402681 1806 |
Live tracking and technical data element details for STARLINK-1913 (NORAD 47179). STARLINK-1913 can be tracked NOW for your location showing map with azimuth and elevation plus other details from your city location.
Track the satellite on the map from your city or location and see movement details for azimuth, elevation, latitude, longitude, range, height, and movement on the map or in text.
IsCatalogInMostPopularTable: catalog: 47179, numindb: 24
Update: records affected: 1
GetName: 47179 STARLINK-1913
Hit Count: updated at: Fri, 22 Jan 2021 15:16:15 GMT